This is the latest recevied weather packets stored in our database for station/object KF5WCW-1. If no packets are shown the sender has not sent any weather packets the latest 10 day(s).
| Time | Temp. | Humidity | Pressure | Rain* | Wind** | Luminosity | Snow |
|---|---|---|---|---|---|---|---|
| 1778004369 | 12.22° C | 47% | 0 hPa | 0 mm | - | - | - |
| 1778004069 | 11.67° C | 49% | 0 hPa | 0 mm | - | - | - |
| 1778003769 | 11.67° C | 49% | 0 hPa | 0 mm | - | - | - |
| 1778003469 | 11.67° C | 48% | 0 hPa | 0 mm | - | - | - |
| 1778003169 | 11.67° C | 48% | 0 hPa | 0 mm | - | - | - |
| 1778002870 | 11.67° C | 48% | 0 hPa | 0 mm | - | - | - |
| 1778002569 | 12.22° C | 45% | 0 hPa | 0 mm | - | - | - |
| 1778002269 | 12.22° C | 46% | 0 hPa | 0 mm | - | - | - |
| 1778001969 | 12.22° C | 44% | 0 hPa | 0 mm | - | - | - |
| 1778001669 | 12.22° C | 44% | 0 hPa | 0 mm | - | - | - |
| 1778001369 | 12.78° C | 44% | 0 hPa | 0 mm | - | - | - |
| 1778001069 | 13.33° C | 43% | 0 hPa | 0 mm | - | - | - |
| 1778000769 | 13.33° C | 43% | 0 hPa | 0 mm | - | - | - |
| 1778000469 | 12.78° C | 44% | 0 hPa | 0 mm | - | - | - |
| 1778000169 | 12.78° C | 44% | 0 hPa | 0 mm | - | - | - |
| 1777999869 | 12.22° C | 43% | 0 hPa | 0 mm | - | - | - |
| 1777999569 | 12.22° C | 42% | 0 hPa | 0 mm | - | - | - |
| 1777999269 | 12.22° C | 44% | 0 hPa | 0 mm | - | - | - |
| 1777998969 | 12.22° C | 41% | 0 hPa | 0 mm | - | - | - |
| 1777998669 | 12.78° C | 45% | 0 hPa | 0 mm | - | - | - |
| 1777998369 | 12.22° C | 46% | 0 hPa | 0 mm | - | - | - |
| 1777998069 | 11.67° C | 48% | 0 hPa | 0 mm | - | - | - |
| 1777997769 | 11.67° C | 54% | 0 hPa | 0 mm | - | - | - |
| 1777997470 | 11.11° C | 53% | 0 hPa | 0 mm | - | - | - |
| 1777997169 | 11.11° C | 53% | 0 hPa | 0 mm | - | - | - |
* Rain latest hour (hover to see other rain measurements)
** Current wind speed in m/s (hover to see current wind gust speed)